BEIDOU-3 M18 (43707 NORAD) Tracking and Keplerian Element Data

This shows tracking and keplerian element data for the satellite.

Feedback or suggestion? Click here.




ElementValue
Catalog43707
NameBEIDOU-3 M18
Epoch Orbit39
Epoch Day344.56332117
Epoch Year2018
RAAN275.9905
Inclination54.9776
Eccentricity0.0095591
Argument of Perigee179.89
Mean Anonmoly81.7358
Mean Motion1.83520881
Decay Rate-3.1E-07
L11 43707U 18093B 18344.56332117 -.00000031 00000-0 00000+0 0 9994
L22 43707 54.9776 275.9905 0095591 179.8900 81.7358 1.83520881 391

Live tracking and technical data element details for BEIDOU-3 M18 (NORAD 43707). BEIDOU-3 M18 can be tracked NOW for your location showing map with azimuth and elevation plus other details from your city location.

Track the satellite on the map from your city or location and see movement details for azimuth, elevation, latitude, longitude, range, height, and movement on the map or in text.







IsCatalogInMostPopularTable: catalog: 43707, numindb: 10
Update: records affected: 1



GetName: 43707 BEIDOU-3 M18

Hit Count: updated at: Tue, 11 Dec 2018 02:19:21 GMT